Location: Audinghen
(50.8518°N, 1.6129°E)
Time: 10:44:39
(UTC+00:00)

Cosmos 2112 Rocket - Pass Details

Date: 07 August 2020
Orbit: 757 x 786 km, 74.0° (Epoch: 20 September)

Event Time Altitude Azimuth Distance (km) Brightness Sun altitude
Rises 01:51:31 0° 337° (NNW) 3,252 7.8 -18.5°
Reaches altitude 10° 01:53:57 10° 340° (NNW) 2,317 7.0 -18.3°
Maximum altitude 01:59:10 63° 62° (ENE) 851 4.4 -17.9°
Drops below altitude 10° 02:04:19 10° 144° (SE) 2,286 6.2 -17.5°
Enters shadow 02:06:31 - 147° (SSE) 3,140 6.9 -17.3°
